Weather History for KMRH - February, 2013

Change the Weather History Date:

Monday, February 4, 2013

  Actual Average Record
Temperature  
Mean Temperature 40 °F -  
Max Temperature 48 °F 56 °F 69 °F (1991)
Min Temperature 33 °F 35 °F 16 °F (1981)
Degree Days  
Heating Degree Days 24    
Moisture  
Dew Point 26 °F    
Average Humidity 55    
Maximum Humidity 74    
Minimum Humidity 32    
Precipitation  
Precipitation 0.00 in - - ()
Sea Level Pressure  
Sea Level Pressure 30.09 in    
Wind  
Wind Speed 7 mph (WNW)    
Max Wind Speed 10 mph    
Max Gust Speed -    
Visibility 10 miles    
Events      
Averages and records for this station are not official NWS values.
T = Trace of Precipitation, MM = Missing Value Source: NWS Daily Summary

Daily Weather History Graph

Daily Weather History Graph

Search for Another Location

Airport or City:

Trip Planner

Search our weather history database for the weather conditions in past years. The results will help you decide how hot, cold, wet, or windy it might be!

Date:

Astronomy

Feb. 04, 2013 Rise Set
Actual Time 7:02 AM EST 5:39 PM EST
Civil Twilight 6:36 AM EST 6:05 PM EST
Nautical Twilight 6:06 AM EST 6:35 PM EST
Astronomical Twilight 5:36 AM EST 7:05 PM EST
Moon 1:32 AM EST (2/4) 12:04 PM EST (2/4)
Length of Visible Light 11h 29m
Length of Day
10h 36m
Last Quarter, 37% of the Moon is Illuminated
Feb 4
Last Quarter
Feb 10
New
Feb 17
First Quarter
Feb 25
Full
Mar 4
Last Quarter

Hourly Weather History & Observations

Time (EST) Temp. Windchill Dew Point Humidity Pressure Visibility Wind Dir Wind Speed Gust Speed Precip Events Conditions
12:58 AM 39.9 °F 34.5 °F 28.9 °F 65% 30.01 in 10.0 mi North 8.1 mph - N/A   Clear
1:58 AM 39.0 °F 34.0 °F 28.0 °F 65% 30.02 in 10.0 mi North 6.9 mph - N/A   Clear
2:58 AM 37.0 °F 32.4 °F 26.1 °F 65% 30.03 in 10.0 mi North 5.8 mph - N/A   Clear
3:58 AM 37.0 °F 31.0 °F 27.0 °F 67% 30.05 in 10.0 mi NNW 8.1 mph - N/A   Clear
5:58 AM 34.0 °F 29.8 °F 23.0 °F 64% 30.09 in 10.0 mi North 4.6 mph - N/A   Clear
6:58 AM 33.1 °F 28.7 °F 23.0 °F 66% 30.10 in 10.0 mi North 4.6 mph - N/A   Clear
7:58 AM 37.0 °F 31.6 °F 23.0 °F 57% 30.12 in 10.0 mi North 6.9 mph - N/A   Clear
8:58 AM 39.9 °F 35.1 °F 21.9 °F 49% 30.14 in 10.0 mi North 6.9 mph - N/A   Clear
9:58 AM 43.0 °F 37.2 °F 21.0 °F 42% 30.15 in 10.0 mi North 10.4 mph - N/A   Clear
10:58 AM 44.1 °F 39.0 °F 21.0 °F 40% 30.16 in 10.0 mi NNW 9.2 mph - N/A   Clear
11:58 AM 46.0 °F 43.1 °F 19.9 °F 35% 30.14 in 10.0 mi NW 5.8 mph - N/A   Clear
12:58 PM 46.9 °F - 19.9 °F 34% 30.12 in 10.0 mi NNW 6.9 mph - N/A   Clear
1:58 PM 48.0 °F - 19.0 °F 32% 30.10 in 10.0 mi WNW 5.8 mph - N/A   Clear
2:58 PM 46.9 °F - 26.1 °F 44% 30.10 in 10.0 mi SSW 6.9 mph - N/A   Clear
3:58 PM 45.0 °F 43.5 °F 25.0 °F 46% 30.08 in 10.0 mi South 3.5 mph - N/A   Clear
4:58 PM 44.1 °F 40.1 °F 27.0 °F 51% 30.08 in 10.0 mi SSW 6.9 mph - N/A   Clear
5:58 PM 43.0 °F 40.3 °F 28.0 °F 56% 30.10 in 10.0 mi South 4.6 mph - N/A   Clear
6:58 PM 44.1 °F 40.1 °F 28.9 °F 55% 30.10 in 10.0 mi South 6.9 mph - N/A   Clear
7:58 PM 46.0 °F 41.9 °F 30.0 °F 54% 30.09 in 10.0 mi SSW 8.1 mph - N/A   Clear
8:58 PM 46.0 °F 41.9 °F 30.9 °F 56% 30.08 in 10.0 mi SSW 8.1 mph - N/A   Clear
9:58 PM 46.0 °F 43.9 °F 35.1 °F 66% 30.07 in 10.0 mi South 4.6 mph - N/A   Clear
10:58 PM 45.0 °F 41.8 °F 37.0 °F 74% 30.06 in 10.0 mi SSW 5.8 mph - N/A   Clear
11:58 PM 48.0 °F - 39.0 °F 71% 30.06 in 10.0 mi SW 6.9 mph - N/A   Clear